Time,TemperatureF,DewpointF,PressureIn,WindDirection,WindDirectionDegrees,WindSpeedMPH,WindSpeedGustMPH,Humidity,HourlyPrecipIn,Conditions,Clouds,dailyrainin,SoftwareType,DateUTC
2013-05-05 00:02:00,63.9,29.1,29.86,SW,219,6.0,13.0,27,0.00,,,0.00,WUHU216DAVISVP2,2013-05-05 07:02:00,
2013-05-05 00:07:00,63.8,29.0,29.86,SW,217,6.0,11.0,27,0.00,,,0.00,WUHU216DAVISVP2,2013-05-05 07:07:00,
2013-05-05 00:12:00,63.6,29.7,29.86,SW,215,7.0,11.0,28,0.00,,,0.00,WUHU216DAVISVP2,2013-05-05 07:12:00,
2013-05-05 00:17:00,63.5,29.6,29.86,SSW,213,7.0,14.0,28,0.00,,,0.00,WUHU216DAVISVP2,2013-05-05 07:17:00,
2013-05-05 00:23:00,63.4,29.5,29.86,SSW,208,6.0,9.0,28,0.00,,,0.00,WUHU216DAVISVP2,2013-05-05 07:23:00,
2013-05-05 00:28:00,63.3,29.4,29.86,SSW,208,6.0,14.0,28,0.00,,,0.00,WUHU216DAVISVP2,2013-05-05 07:28:00,
2013-05-05 00:33:00,63.2,30.2,29.86,SSW,212,7.0,11.0,29,0.00,,,0.00,WUHU216DAVISVP2,2013-05-05 07:33:00,
2013-05-05 00:38:00,63.2,30.2,29.86,SW,214,8.0,12.0,29,0.00,,,0.00,WUHU216DAVISVP2,2013-05-05 07:38:00,
2013-05-05 00:43:00,63.1,30.1,29.86,SSW,210,6.0,11.0,29,0.00,,,0.00,WUHU216DAVISVP2,2013-05-05 07:43:00,
2013-05-05 00:48:00,63.0,30.9,29.86,SSW,213,6.0,13.0,30,0.00,,,0.00,WUHU216DAVISVP2,2013-05-05 07:48:00,
2013-05-05 00:53:00,62.8,30.7,29.86,SW,217,7.0,10.0,30,0.00,,,0.00,WUHU216DAVISVP2,2013-05-05 07:53:00,
2013-05-05 00:58:00,62.7,31.4,29.85,SW,222,6.0,12.0,31,0.00,,,0.00,WUHU216DAVISVP2,2013-05-05 07:58:00,
2013-05-05 01:03:00,62.7,31.4,29.85,SW,225,8.0,13.0,31,0.00,,,0.00,WUHU216DAVISVP2,2013-05-05 08:03:00,
2013-05-05 01:08:00,62.8,32.3,29.85,SW,228,8.0,13.0,32,0.00,,,0.00,WUHU216DAVISVP2,2013-05-05 08:08:00,
2013-05-05 01:13:00,62.9,32.4,29.85,SW,223,9.0,15.0,32,0.00,,,0.00,WUHU216DAVISVP2,2013-05-05 08:13:00,
2013-05-05 01:18:00,62.9,33.1,29.85,SW,220,8.0,11.0,33,0.00,,,0.00,WUHU216DAVISVP2,2013-05-05 08:18:00,
2013-05-05 01:23:00,62.8,33.0,29.85,SW,220,9.0,14.0,33,0.00,,,0.00,WUHU216DAVISVP2,2013-05-05 08:23:00,
2013-05-05 01:28:00,62.8,33.0,29.84,SW,224,9.0,14.0,33,0.00,,,0.00,WUHU216DAVISVP2,2013-05-05 08:28:00,
2013-05-05 01:33:00,62.7,33.0,29.84,SW,226,11.0,18.0,33,0.00,,,0.00,WUHU216DAVISVP2,2013-05-05 08:33:00,
2013-05-05 01:38:00,62.7,33.0,29.84,SW,227,12.0,19.0,33,0.00,,,0.00,WUHU216DAVISVP2,2013-05-05 08:38:00,
2013-05-05 01:44:00,62.5,32.8,29.84,SW,225,12.0,20.0,33,0.00,,,0.00,WUHU216DAVISVP2,2013-05-05 08:44:00,
2013-05-05 01:50:00,62.4,32.7,29.84,SW,218,12.0,17.0,33,0.00,,,0.00,WUHU216DAVISVP2,2013-05-05 08:50:00,
2013-05-05 01:57:00,62.2,32.5,29.85,SW,219,9.0,18.0,33,0.00,,,0.00,WUHU216DAVISVP2,2013-05-05 08:57:00,
2013-05-05 02:02:00,62.1,32.4,29.85,SW,217,10.0,15.0,33,0.00,,,0.00,WUHU216DAVISVP2,2013-05-05 09:02:00,
2013-05-05 02:08:00,62.1,32.4,29.85,SW,214,9.0,14.0,33,0.00,,,0.00,WUHU216DAVISVP2,2013-05-05 09:08:00,
2013-05-05 02:13:00,62.1,32.4,29.85,SW,216,8.0,14.0,33,0.00,,,0.00,WUHU216DAVISVP2,2013-05-05 09:13:00,
2013-05-05 02:20:00,62.0,32.3,29.85,SW,218,8.0,13.0,33,0.00,,,0.00,WUHU216DAVISVP2,2013-05-05 09:20:00,
2013-05-05 02:26:00,61.8,32.2,29.85,SW,218,7.0,12.0,33,0.00,,,0.00,WUHU216DAVISVP2,2013-05-05 09:26:00,
2013-05-05 02:31:00,61.7,32.1,29.85,SW,216,7.0,13.0,33,0.00,,,0.00,WUHU216DAVISVP2,2013-05-05 09:31:00,
2013-05-05 02:36:00,61.6,32.0,29.86,SW,220,7.0,12.0,33,0.00,,,0.00,WUHU216DAVISVP2,2013-05-05 09:36:00,
2013-05-05 02:41:00,61.6,32.0,29.86,SSW,212,7.0,11.0,33,0.00,,,0.00,WUHU216DAVISVP2,2013-05-05 09:41:00,
2013-05-05 02:46:00,61.5,31.9,29.86,SSW,205,7.0,12.0,33,0.00,,,0.00,WUHU216DAVISVP2,2013-05-05 09:46:00,
2013-05-05 02:51:00,61.5,31.1,29.86,SSW,208,7.0,12.0,32,0.00,,,0.00,WUHU216DAVISVP2,2013-05-05 09:51:00,
2013-05-05 02:56:00,61.5,31.1,29.86,SSW,210,6.0,11.0,32,0.00,,,0.00,WUHU216DAVISVP2,2013-05-05 09:56:00,
2013-05-05 03:02:00,61.4,29.5,29.86,SSW,202,7.0,19.0,30,0.00,,,0.00,WUHU216DAVISVP2,2013-05-05 10:02:00,
2013-05-05 03:07:00,61.6,28.0,29.86,SSW,201,8.0,16.0,28,0.00,,,0.00,WUHU216DAVISVP2,2013-05-05 10:07:00,
2013-05-05 03:12:00,61.8,27.3,29.86,SSW,198,10.0,15.0,27,0.00,,,0.00,WUHU216DAVISVP2,2013-05-05 10:12:00,
2013-05-05 03:17:00,61.8,26.4,29.86,South,186,9.0,14.0,26,0.00,,,0.00,WUHU216DAVISVP2,2013-05-05 10:17:00,
2013-05-05 03:22:00,61.9,25.5,29.86,South,186,9.0,14.0,25,0.00,,,0.00,WUHU216DAVISVP2,2013-05-05 10:22:00,
2013-05-05 03:27:00,61.8,26.4,29.86,South,189,7.0,13.0,26,0.00,,,0.00,WUHU216DAVISVP2,2013-05-05 10:27:00,
2013-05-05 03:32:00,61.7,26.3,29.86,South,186,7.0,11.0,26,0.00,,,0.00,WUHU216DAVISVP2,2013-05-05 10:32:00,
2013-05-05 03:37:00,61.6,25.3,29.86,South,186,7.0,13.0,25,0.00,,,0.00,WUHU216DAVISVP2,2013-05-05 10:37:00,
2013-05-05 03:42:00,61.5,24.2,29.87,SSW,195,7.0,12.0,24,0.00,,,0.00,WUHU216DAVISVP2,2013-05-05 10:42:00,
2013-05-05 03:47:00,61.4,24.1,29.87,South,189,4.0,11.0,24,0.00,,,0.00,WUHU216DAVISVP2,2013-05-05 10:47:00,
2013-05-05 03:52:00,61.2,23.0,29.86,South,179,6.0,11.0,23,0.00,,,0.00,WUHU216DAVISVP2,2013-05-05 10:52:00,
2013-05-05 03:57:00,61.1,22.9,29.86,South,174,4.0,9.0,23,0.00,,,0.00,WUHU216DAVISVP2,2013-05-05 10:57:00,
2013-05-05 04:02:00,61.0,21.8,29.86,South,181,5.0,13.0,22,0.00,,,0.00,WUHU216DAVISVP2,2013-05-05 11:02:00,
2013-05-05 04:07:00,61.0,21.8,29.86,South,185,6.0,10.0,22,0.00,,,0.00,WUHU216DAVISVP2,2013-05-05 11:07:00,
2013-05-05 04:12:00,60.7,22.6,29.86,SSW,199,4.0,7.0,23,0.00,,,0.00,WUHU216DAVISVP2,2013-05-05 11:12:00,
2013-05-05 04:17:00,60.3,22.2,29.86,SSW,197,4.0,6.0,23,0.00,,,0.00,WUHU216DAVISVP2,2013-05-05 11:17:00,
2013-05-05 04:23:00,59.9,21.9,29.86,SSW,200,4.0,6.0,23,0.00,,,0.00,WUHU216DAVISVP2,2013-05-05 11:23:00,
2013-05-05 04:28:00,59.5,22.5,29.86,SSW,200,3.0,5.0,24,0.00,,,0.00,WUHU216DAVISVP2,2013-05-05 11:28:00,
2013-05-05 04:33:00,59.1,22.2,29.86,SSW,203,3.0,6.0,24,0.00,,,0.00,WUHU216DAVISVP2,2013-05-05 11:33:00,
2013-05-05 04:38:00,58.8,21.9,29.86,SSW,201,3.0,6.0,24,0.00,,,0.00,WUHU216DAVISVP2,2013-05-05 11:38:00,
2013-05-05 04:43:00,58.8,20.9,29.86,South,191,5.0,8.0,23,0.00,,,0.00,WUHU216DAVISVP2,2013-05-05 11:43:00,
2013-05-05 04:48:00,59.1,21.2,29.86,South,184,5.0,11.0,23,0.00,,,0.00,WUHU216DAVISVP2,2013-05-05 11:48:00,
2013-05-05 04:53:00,59.4,22.4,29.86,South,179,5.0,8.0,24,0.00,,,0.00,WUHU216DAVISVP2,2013-05-05 11:53:00,
2013-05-05 04:58:00,59.5,22.5,29.86,South,181,6.0,9.0,24,0.00,,,0.00,WUHU216DAVISVP2,2013-05-05 11:58:00,
2013-05-05 05:03:00,59.3,23.3,29.86,South,190,4.0,8.0,25,0.00,,,0.00,WUHU216DAVISVP2,2013-05-05 12:03:00,
2013-05-05 05:08:00,59.0,23.1,29.86,South,191,4.0,8.0,25,0.00,,,0.00,WUHU216DAVISVP2,2013-05-05 12:08:00,
2013-05-05 05:13:00,58.7,23.7,29.86,South,187,4.0,8.0,26,0.00,,,0.00,WUHU216DAVISVP2,2013-05-05 12:13:00,
2013-05-05 05:18:00,58.6,23.6,29.87,South,187,4.0,8.0,26,0.00,,,0.00,WUHU216DAVISVP2,2013-05-05 12:18:00,
2013-05-05 05:23:00,58.8,23.8,29.87,South,184,5.0,9.0,26,0.00,,,0.00,WUHU216DAVISVP2,2013-05-05 12:23:00,
2013-05-05 05:28:00,59.1,24.1,29.87,South,173,5.0,12.0,26,0.00,,,0.00,WUHU216DAVISVP2,2013-05-05 12:28:00,
2013-05-05 05:33:00,59.1,24.1,29.88,SSE,166,6.0,10.0,26,0.00,,,0.00,WUHU216DAVISVP2,2013-05-05 12:33:00,
2013-05-05 05:38:00,59.1,24.1,29.88,South,169,5.0,9.0,26,0.00,,,0.00,WUHU216DAVISVP2,2013-05-05 12:38:00,
2013-05-05 05:44:00,58.8,23.8,29.88,South,190,3.0,4.0,26,0.00,,,0.00,WUHU216DAVISVP2,2013-05-05 12:44:00,
2013-05-05 05:49:00,58.2,23.3,29.88,SSW,195,2.0,3.0,26,0.00,,,0.00,WUHU216DAVISVP2,2013-05-05 12:49:00,
2013-05-05 05:54:00,57.7,23.8,29.88,SSW,203,2.0,3.0,27,0.00,,,0.00,WUHU216DAVISVP2,2013-05-05 12:54:00,
2013-05-05 05:59:00,57.2,24.2,29.88,SW,222,2.0,4.0,28,0.00,,,0.00,WUHU216DAVISVP2,2013-05-05 12:59:00,
2013-05-05 06:04:00,56.8,23.8,29.89,WSW,249,2.0,3.0,28,0.00,,,0.00,WUHU216DAVISVP2,2013-05-05 13:04:00,
2013-05-05 06:09:00,57.3,24.3,29.89,SW,233,2.0,4.0,28,0.00,,,0.00,WUHU216DAVISVP2,2013-05-05 13:09:00,
2013-05-05 06:14:00,58.2,25.0,29.89,SSW,193,2.0,3.0,28,0.00,,,0.00,WUHU216DAVISVP2,2013-05-05 13:14:00,
2013-05-05 06:19:00,59.3,24.2,29.89,SSW,196,3.0,4.0,26,0.00,,,0.00,WUHU216DAVISVP2,2013-05-05 13:19:00,
2013-05-05 06:24:00,60.1,24.9,29.90,SSW,198,2.0,4.0,26,0.00,,,0.00,WUHU216DAVISVP2,2013-05-05 13:24:00,
2013-05-05 06:29:00,60.6,25.3,29.90,SSW,200,2.0,4.0,26,0.00,,,0.00,WUHU216DAVISVP2,2013-05-05 13:29:00,
2013-05-05 06:34:00,60.6,26.2,29.90,SSW,199,3.0,6.0,27,0.00,,,0.00,WUHU216DAVISVP2,2013-05-05 13:34:00,
2013-05-05 06:39:00,60.4,26.9,29.90,South,175,3.0,5.0,28,0.00,,,0.00,WUHU216DAVISVP2,2013-05-05 13:39:00,
2013-05-05 06:44:00,60.3,26.9,29.90,SSE,163,3.0,5.0,28,0.00,,,0.00,WUHU216DAVISVP2,2013-05-05 13:44:00,
2013-05-05 06:49:00,60.2,28.4,29.90,South,170,3.0,6.0,30,0.00,,,0.00,WUHU216DAVISVP2,2013-05-05 13:49:00,
2013-05-05 06:54:00,60.0,28.3,29.90,SSE,168,3.0,6.0,30,0.00,,,0.00,WUHU216DAVISVP2,2013-05-05 13:54:00,
2013-05-05 07:00:00,60.2,28.4,29.91,SSE,166,3.0,6.0,30,0.00,,,0.00,WUHU216DAVISVP2,2013-05-05 14:00:00,
2013-05-05 07:05:00,61.0,29.1,29.91,SSE,156,4.0,9.0,30,0.00,,,0.00,WUHU216DAVISVP2,2013-05-05 14:05:00,
2013-05-05 07:10:00,61.9,29.9,29.90,SE,141,6.0,9.0,30,0.00,,,0.00,WUHU216DAVISVP2,2013-05-05 14:10:00,
2013-05-05 07:15:00,61.9,30.7,29.91,SE,142,8.0,10.0,31,0.00,,,0.00,WUHU216DAVISVP2,2013-05-05 14:15:00,
2013-05-05 07:20:00,61.5,31.9,29.90,SE,141,7.0,11.0,33,0.00,,,0.00,WUHU216DAVISVP2,2013-05-05 14:20:00,
2013-05-05 07:25:00,61.2,32.4,29.91,SE,142,7.0,12.0,34,0.00,,,0.00,WUHU216DAVISVP2,2013-05-05 14:25:00,
2013-05-05 07:30:00,61.0,32.2,29.91,SE,144,6.0,10.0,34,0.00,,,0.00,WUHU216DAVISVP2,2013-05-05 14:30:00,
2013-05-05 07:35:00,60.9,32.8,29.91,SE,130,7.0,11.0,35,0.00,,,0.00,WUHU216DAVISVP2,2013-05-05 14:35:00,
2013-05-05 07:40:00,61.0,32.9,29.91,ESE,120,7.0,10.0,35,0.00,,,0.00,WUHU216DAVISVP2,2013-05-05 14:40:00,
2013-05-05 07:45:00,61.3,31.7,29.91,SE,135,7.0,10.0,33,0.00,,,0.00,WUHU216DAVISVP2,2013-05-05 14:45:00,
2013-05-05 07:50:00,61.8,31.4,29.91,SE,146,7.0,10.0,32,0.00,,,0.00,WUHU216DAVISVP2,2013-05-05 14:50:00,
2013-05-05 07:55:00,62.3,31.8,29.91,SSE,153,7.0,13.0,32,0.00,,,0.00,WUHU216DAVISVP2,2013-05-05 14:55:00,
2013-05-05 08:00:00,62.3,31.1,29.91,SE,140,8.0,11.0,31,0.00,,,0.00,WUHU216DAVISVP2,2013-05-05 15:00:00,
2013-05-05 08:06:00,63.0,32.5,29.92,SE,137,8.0,13.0,32,0.00,,,0.00,WUHU216DAVISVP2,2013-05-05 15:06:00,
2013-05-05 08:11:00,63.6,31.4,29.91,SE,145,10.0,13.0,30,0.00,,,0.00,WUHU216DAVISVP2,2013-05-05 15:11:00,
2013-05-05 08:16:00,64.6,31.4,29.92,SE,142,9.0,13.0,29,0.00,,,0.00,WUHU216DAVISVP2,2013-05-05 15:16:00,
2013-05-05 08:21:00,64.9,30.8,29.91,SSE,156,9.0,13.0,28,0.00,,,0.00,WUHU216DAVISVP2,2013-05-05 15:21:00,
2013-05-05 08:26:00,64.7,30.7,29.92,SSE,150,8.0,13.0,28,0.00,,,0.00,WUHU216DAVISVP2,2013-05-05 15:26:00,
2013-05-05 08:31:00,64.9,29.9,29.92,South,171,5.0,8.0,27,0.00,,,0.00,WUHU216DAVISVP2,2013-05-05 15:31:00,
2013-05-05 08:36:00,65.3,31.2,29.92,SSE,163,7.0,12.0,28,0.00,,,0.00,WUHU216DAVISVP2,2013-05-05 15:36:00,
2013-05-05 08:41:00,64.9,30.8,29.92,SSE,160,7.0,14.0,28,0.00,,,0.00,WUHU216DAVISVP2,2013-05-05 15:41:00,
2013-05-05 08:46:00,65.6,31.4,29.92,SSE,166,7.0,12.0,28,0.00,,,0.00,WUHU216DAVISVP2,2013-05-05 15:46:00,
2013-05-05 08:51:00,65.8,30.7,29.92,SE,140,8.0,12.0,27,0.00,,,0.00,WUHU216DAVISVP2,2013-05-05 15:51:00,
2013-05-05 08:56:00,65.8,30.7,29.92,SE,136,7.0,13.0,27,0.00,,,0.00,WUHU216DAVISVP2,2013-05-05 15:56:00,
2013-05-05 09:01:00,66.2,31.9,29.92,SSE,157,7.0,13.0,28,0.00,,,0.00,WUHU216DAVISVP2,2013-05-05 16:01:00,
2013-05-05 09:06:00,66.1,31.9,29.92,SSE,147,8.0,11.0,28,0.00,,,0.00,WUHU216DAVISVP2,2013-05-05 16:06:00,
2013-05-05 09:12:00,66.3,31.1,29.93,SE,141,9.0,16.0,27,0.00,,,0.00,WUHU216DAVISVP2,2013-05-05 16:12:00,
2013-05-05 09:17:00,66.3,31.1,29.92,SSE,159,5.0,14.0,27,0.00,,,0.00,WUHU216DAVISVP2,2013-05-05 16:17:00,
2013-05-05 09:22:00,66.3,32.0,29.92,SSE,160,6.0,10.0,28,0.00,,,0.00,WUHU216DAVISVP2,2013-05-05 16:22:00,
2013-05-05 09:27:00,66.9,31.7,29.92,SSE,166,6.0,10.0,27,0.00,,,0.00,WUHU216DAVISVP2,2013-05-05 16:27:00,
2013-05-05 09:32:00,67.1,31.8,29.92,SSE,166,5.0,13.0,27,0.00,,,0.00,WUHU216DAVISVP2,2013-05-05 16:32:00,
2013-05-05 09:37:00,68.0,32.6,29.92,South,175,6.0,10.0,27,0.00,,,0.00,WUHU216DAVISVP2,2013-05-05 16:37:00,
2013-05-05 09:42:00,68.1,31.8,29.92,SE,142,7.0,10.0,26,0.00,,,0.00,WUHU216DAVISVP2,2013-05-05 16:42:00,
2013-05-05 09:47:00,68.1,31.8,29.92,SSE,166,6.0,10.0,26,0.00,,,0.00,WUHU216DAVISVP2,2013-05-05 16:47:00,
2013-05-05 09:52:00,68.1,31.8,29.92,SE,142,8.0,13.0,26,0.00,,,0.00,WUHU216DAVISVP2,2013-05-05 16:52:00,
2013-05-05 09:57:00,68.8,31.4,29.92,SE,135,7.0,13.0,25,0.00,,,0.00,WUHU216DAVISVP2,2013-05-05 16:57:00,
2013-05-05 10:02:00,69.2,31.7,29.91,SE,141,8.0,12.0,25,0.00,,,0.00,WUHU216DAVISVP2,2013-05-05 17:02:00,
2013-05-05 10:07:00,69.9,31.3,29.91,SSE,152,9.0,15.0,24,0.00,,,0.00,WUHU216DAVISVP2,2013-05-05 17:07:00,
2013-05-05 10:12:00,69.6,31.1,29.92,SE,136,8.0,13.0,24,0.00,,,0.00,WUHU216DAVISVP2,2013-05-05 17:12:00,
2013-05-05 10:17:00,70.2,30.6,29.91,SSE,159,7.0,13.0,23,0.00,,,0.00,WUHU216DAVISVP2,2013-05-05 17:17:00,
2013-05-05 10:22:00,69.8,31.3,29.91,SSE,163,9.0,14.0,24,0.00,,,0.00,WUHU216DAVISVP2,2013-05-05 17:22:00,
2013-05-05 10:27:00,69.9,30.3,29.92,SSE,155,7.0,14.0,23,0.00,,,0.00,WUHU216DAVISVP2,2013-05-05 17:27:00,
2013-05-05 10:33:00,70.1,30.5,29.91,SSE,149,9.0,15.0,23,0.00,,,0.00,WUHU216DAVISVP2,2013-05-05 17:33:00,
2013-05-05 10:38:00,70.5,29.7,29.91,ESE,123,9.0,13.0,22,0.00,,,0.00,WUHU216DAVISVP2,2013-05-05 17:38:00,
2013-05-05 10:43:00,71.2,29.2,29.91,SSE,152,10.0,16.0,21,0.00,,,0.00,WUHU216DAVISVP2,2013-05-05 17:43:00,
2013-05-05 10:48:00,71.2,29.2,29.91,South,171,6.0,11.0,21,0.00,,,0.00,WUHU216DAVISVP2,2013-05-05 17:48:00,
2013-05-05 10:53:00,71.4,29.4,29.91,South,173,4.0,9.0,21,0.00,,,0.00,WUHU216DAVISVP2,2013-05-05 17:53:00,
2013-05-05 10:58:00,72.4,27.8,29.90,SSW,204,8.0,16.0,19,0.00,,,0.00,WUHU216DAVISVP2,2013-05-05 17:58:00,
2013-05-05 11:03:00,72.6,27.9,29.91,SW,215,8.0,17.0,19,0.00,,,0.00,WUHU216DAVISVP2,2013-05-05 18:03:00,
2013-05-05 11:08:00,73.0,26.9,29.90,SSW,205,9.0,14.0,18,0.00,,,0.00,WUHU216DAVISVP2,2013-05-05 18:08:00,
2013-05-05 11:14:00,73.7,28.8,29.90,South,180,8.0,14.0,19,0.00,,,0.00,WUHU216DAVISVP2,2013-05-05 18:14:00,
2013-05-05 11:19:00,73.8,26.2,29.90,South,188,9.0,15.0,17,0.00,,,0.00,WUHU216DAVISVP2,2013-05-05 18:19:00,
2013-05-05 11:24:00,73.6,27.4,29.90,SSW,199,10.0,19.0,18,0.00,,,0.00,WUHU216DAVISVP2,2013-05-05 18:24:00,
2013-05-05 11:29:00,73.6,27.4,29.90,SSW,213,9.0,14.0,18,0.00,,,0.00,WUHU216DAVISVP2,2013-05-05 18:29:00,
2013-05-05 11:34:00,73.4,27.3,29.90,South,183,9.0,16.0,18,0.00,,,0.00,WUHU216DAVISVP2,2013-05-05 18:34:00,
2013-05-05 11:39:00,74.1,29.2,29.90,SSW,207,8.0,17.0,19,0.00,,,0.00,WUHU216DAVISVP2,2013-05-05 18:39:00,
2013-05-05 11:44:00,74.2,27.9,29.90,SSW,209,10.0,21.0,18,0.00,,,0.00,WUHU216DAVISVP2,2013-05-05 18:44:00,
2013-05-05 11:49:00,74.3,28.0,29.89,SW,218,9.0,13.0,18,0.00,,,0.00,WUHU216DAVISVP2,2013-05-05 18:49:00,
2013-05-05 11:54:00,74.3,28.0,29.89,SSW,198,9.0,16.0,18,0.00,,,0.00,WUHU216DAVISVP2,2013-05-05 18:54:00,
2013-05-05 11:59:00,74.2,27.9,29.89,SSW,206,11.0,18.0,18,0.00,,,0.00,WUHU216DAVISVP2,2013-05-05 18:59:00,
2013-05-05 12:04:00,74.8,27.0,29.89,SSW,202,9.0,17.0,17,0.00,,,0.00,WUHU216DAVISVP2,2013-05-05 19:04:00,
2013-05-05 12:09:00,75.3,27.4,29.89,South,183,9.0,18.0,17,0.00,,,0.00,WUHU216DAVISVP2,2013-05-05 19:09:00,
2013-05-05 12:14:00,75.0,27.2,29.89,South,176,7.0,14.0,17,0.00,,,0.00,WUHU216DAVISVP2,2013-05-05 19:14:00,
2013-05-05 12:19:00,75.3,28.8,29.88,SSE,165,8.0,14.0,18,0.00,,,0.00,WUHU216DAVISVP2,2013-05-05 19:19:00,
2013-05-05 12:24:00,74.8,28.4,29.88,SSW,201,6.0,13.0,18,0.00,,,0.00,WUHU216DAVISVP2,2013-05-05 19:24:00,
2013-05-05 12:29:00,74.8,27.0,29.88,South,184,7.0,17.0,17,0.00,,,0.00,WUHU216DAVISVP2,2013-05-05 19:29:00,
2013-05-05 12:35:00,75.8,29.2,29.87,SSW,197,8.0,15.0,18,0.00,,,0.00,WUHU216DAVISVP2,2013-05-05 19:35:00,
2013-05-05 12:40:00,76.1,28.1,29.87,SSW,198,10.0,19.0,17,0.00,,,0.00,WUHU216DAVISVP2,2013-05-05 19:40:00,
2013-05-05 12:45:00,76.0,28.0,29.87,SW,217,10.0,18.0,17,0.00,,,0.00,WUHU216DAVISVP2,2013-05-05 19:45:00,
2013-05-05 12:50:00,75.8,27.8,29.87,SSW,213,9.0,16.0,17,0.00,,,0.00,WUHU216DAVISVP2,2013-05-05 19:50:00,
2013-05-05 12:55:00,76.4,26.8,29.87,SSW,201,10.0,18.0,16,0.00,,,0.00,WUHU216DAVISVP2,2013-05-05 19:55:00,
2013-05-05 13:00:00,76.2,28.2,29.87,SSW,207,10.0,17.0,17,0.00,,,0.00,WUHU216DAVISVP2,2013-05-05 20:00:00,
2013-05-05 13:05:00,76.6,27.0,29.87,SW,216,8.0,16.0,16,0.00,,,0.00,WUHU216DAVISVP2,2013-05-05 20:05:00,
2013-05-05 13:10:00,77.7,26.3,29.87,South,179,11.0,18.0,15,0.00,,,0.00,WUHU216DAVISVP2,2013-05-05 20:10:00,
2013-05-05 13:15:00,77.4,26.1,29.87,South,183,10.0,18.0,15,0.00,,,0.00,WUHU216DAVISVP2,2013-05-05 20:15:00,
2013-05-05 13:20:00,76.5,26.9,29.87,South,178,11.0,18.0,16,0.00,,,0.00,WUHU216DAVISVP2,2013-05-05 20:20:00,
2013-05-05 13:25:00,76.1,26.6,29.87,South,188,10.0,18.0,16,0.00,,,0.00,WUHU216DAVISVP2,2013-05-05 20:25:00,
2013-05-05 13:30:00,76.2,28.2,29.87,SSW,193,8.0,14.0,17,0.00,,,0.00,WUHU216DAVISVP2,2013-05-05 20:30:00,
2013-05-05 13:35:00,76.1,28.1,29.86,SW,215,7.0,13.0,17,0.00,,,0.00,WUHU216DAVISVP2,2013-05-05 20:35:00,
2013-05-05 13:41:00,77.1,28.9,29.86,SW,229,8.0,14.0,17,0.00,,,0.00,WUHU216DAVISVP2,2013-05-05 20:41:00,
2013-05-05 13:46:00,77.6,29.3,29.85,SSW,198,10.0,19.0,17,0.00,,,0.00,WUHU216DAVISVP2,2013-05-05 20:46:00,
2013-05-05 13:51:00,77.5,29.2,29.85,SSW,196,9.0,15.0,17,0.00,,,0.00,WUHU216DAVISVP2,2013-05-05 20:51:00,
2013-05-05 13:56:00,76.7,28.6,29.85,SSW,206,6.0,10.0,17,0.00,,,0.00,WUHU216DAVISVP2,2013-05-05 20:56:00,
2013-05-05 14:01:00,77.2,27.5,29.84,SSW,198,6.0,13.0,16,0.00,,,0.00,WUHU216DAVISVP2,2013-05-05 21:01:00,
2013-05-05 14:06:00,78.3,26.8,29.84,South,185,8.0,16.0,15,0.00,,,0.00,WUHU216DAVISVP2,2013-05-05 21:06:00,
2013-05-05 14:11:00,78.3,25.1,29.84,SSW,212,12.0,19.0,14,0.00,,,0.00,WUHU216DAVISVP2,2013-05-05 21:11:00,
2013-05-05 14:16:00,77.5,24.4,29.84,SSW,206,12.0,22.0,14,0.00,,,0.00,WUHU216DAVISVP2,2013-05-05 21:16:00,
2013-05-05 14:21:00,77.6,24.5,29.84,SW,215,9.0,16.0,14,0.00,,,0.00,WUHU216DAVISVP2,2013-05-05 21:21:00,
2013-05-05 14:26:00,77.3,24.3,29.84,SSW,197,7.0,11.0,14,0.00,,,0.00,WUHU216DAVISVP2,2013-05-05 21:26:00,
2013-05-05 14:31:00,77.0,25.7,29.84,SW,235,6.0,15.0,15,0.00,,,0.00,WUHU216DAVISVP2,2013-05-05 21:31:00,
2013-05-05 14:36:00,78.3,25.1,29.83,WSW,246,11.0,21.0,14,0.00,,,0.00,WUHU216DAVISVP2,2013-05-05 21:36:00,
2013-05-05 14:41:00,77.1,24.1,29.83,SW,221,10.0,18.0,14,0.00,,,0.00,WUHU216DAVISVP2,2013-05-05 21:41:00,
2013-05-05 14:46:00,76.6,23.7,29.83,SSW,212,12.0,21.0,14,0.00,,,0.00,WUHU216DAVISVP2,2013-05-05 21:46:00,
2013-05-05 14:51:00,78.2,23.2,29.83,SSW,205,8.0,16.0,13,0.00,,,0.00,WUHU216DAVISVP2,2013-05-05 21:51:00,
2013-05-05 14:56:00,78.7,23.6,29.83,SW,228,10.0,16.0,13,0.00,,,0.00,WUHU216DAVISVP2,2013-05-05 21:56:00,
2013-05-05 15:02:00,78.0,21.1,29.83,SSW,197,13.0,22.0,12,0.00,,,0.00,WUHU216DAVISVP2,2013-05-05 22:02:00,
2013-05-05 15:12:00,78.5,21.5,29.83,SSW,193,10.0,16.0,12,0.00,,,0.00,WUHU216DAVISVP2,2013-05-05 22:12:00,
2013-05-05 15:17:00,77.5,20.7,29.82,SSW,202,9.0,16.0,12,0.00,,,0.00,WUHU216DAVISVP2,2013-05-05 22:17:00,
2013-05-05 15:22:00,78.6,21.5,29.82,SW,233,9.0,17.0,12,0.00,,,0.00,WUHU216DAVISVP2,2013-05-05 22:22:00,
2013-05-05 15:27:00,78.4,19.3,29.82,SSW,198,9.0,16.0,11,0.00,,,0.00,WUHU216DAVISVP2,2013-05-05 22:27:00,
2013-05-05 15:32:00,77.7,20.8,29.82,SSW,202,10.0,19.0,12,0.00,,,0.00,WUHU216DAVISVP2,2013-05-05 22:32:00,
2013-05-05 15:37:00,77.5,20.7,29.82,SSW,205,9.0,21.0,12,0.00,,,0.00,WUHU216DAVISVP2,2013-05-05 22:37:00,
2013-05-05 15:42:00,77.8,20.9,29.82,SSW,199,14.0,24.0,12,0.00,,,0.00,WUHU216DAVISVP2,2013-05-05 22:42:00,
2013-05-05 15:47:00,77.0,20.3,29.81,SSW,199,10.0,20.0,12,0.00,,,0.00,WUHU216DAVISVP2,2013-05-05 22:47:00,
2013-05-05 15:52:00,76.8,22.1,29.81,SSW,198,11.0,17.0,13,0.00,,,0.00,WUHU216DAVISVP2,2013-05-05 22:52:00,
2013-05-05 15:57:00,76.6,17.9,29.81,SSW,202,13.0,20.0,11,0.00,,,0.00,WUHU216DAVISVP2,2013-05-05 22:57:00,
2013-05-05 16:02:00,76.7,18.0,29.81,South,190,11.0,18.0,11,0.00,,,0.00,WUHU216DAVISVP2,2013-05-05 23:02:00,
2013-05-05 16:07:00,77.1,18.3,29.81,SSW,203,13.0,21.0,11,0.00,,,0.00,WUHU216DAVISVP2,2013-05-05 23:07:00,
2013-05-05 16:12:00,76.5,17.8,29.82,SSW,201,9.0,16.0,11,0.00,,,0.00,WUHU216DAVISVP2,2013-05-05 23:12:00,
2013-05-05 16:17:00,77.1,16.0,29.82,SSW,202,14.0,21.0,10,0.00,,,0.00,WUHU216DAVISVP2,2013-05-05 23:17:00,
2013-05-05 16:22:00,76.3,15.4,29.82,SSW,202,12.0,17.0,10,0.00,,,0.00,WUHU216DAVISVP2,2013-05-05 23:22:00,
2013-05-05 16:28:00,76.6,17.9,29.82,SSW,206,11.0,19.0,11,0.00,,,0.00,WUHU216DAVISVP2,2013-05-05 23:28:00,
2013-05-05 16:33:00,76.1,17.5,29.82,SSW,196,11.0,20.0,11,0.00,,,0.00,WUHU216DAVISVP2,2013-05-05 23:33:00,
2013-05-05 16:38:00,75.8,19.4,29.82,SSW,204,11.0,17.0,12,0.00,,,0.00,WUHU216DAVISVP2,2013-05-05 23:38:00,
2013-05-05 16:43:00,75.5,19.1,29.82,SSW,197,8.0,14.0,12,0.00,,,0.00,WUHU216DAVISVP2,2013-05-05 23:43:00,
2013-05-05 16:48:00,75.6,21.1,29.82,SSW,208,11.0,19.0,13,0.00,,,0.00,WUHU216DAVISVP2,2013-05-05 23:48:00,
2013-05-05 16:53:00,74.8,20.5,29.81,SW,225,13.0,20.0,13,0.00,,,0.00,WUHU216DAVISVP2,2013-05-05 23:53:00,
2013-05-05 16:58:00,74.8,20.5,29.82,SW,214,11.0,19.0,13,0.00,,,0.00,WUHU216DAVISVP2,2013-05-05 23:58:00,
2013-05-05 17:03:00,74.4,20.2,29.81,SSW,209,11.0,19.0,13,0.00,,,0.00,WUHU216DAVISVP2,2013-05-06 00:03:00,
2013-05-05 17:08:00,74.6,22.1,29.81,SSW,208,11.0,18.0,14,0.00,,,0.00,WUHU216DAVISVP2,2013-05-06 00:08:00,
2013-05-05 17:13:00,74.1,18.0,29.82,SW,214,12.0,20.0,12,0.00,,,0.00,WUHU216DAVISVP2,2013-05-06 00:13:00,
2013-05-05 17:18:00,75.1,18.8,29.82,SSW,208,11.0,23.0,12,0.00,,,0.00,WUHU216DAVISVP2,2013-05-06 00:18:00,
2013-05-05 17:23:00,75.3,19.0,29.82,SSW,210,12.0,22.0,12,0.00,,,0.00,WUHU216DAVISVP2,2013-05-06 00:23:00,
2013-05-05 17:28:00,75.5,21.1,29.81,SW,221,11.0,17.0,13,0.00,,,0.00,WUHU216DAVISVP2,2013-05-06 00:28:00,
2013-05-05 17:33:00,75.0,20.7,29.81,SW,217,8.0,15.0,13,0.00,,,0.00,WUHU216DAVISVP2,2013-05-06 00:33:00,
2013-05-05 17:38:00,74.8,22.3,29.81,SSW,197,10.0,16.0,14,0.00,,,0.00,WUHU216DAVISVP2,2013-05-06 00:38:00,
2013-05-05 17:43:00,74.8,24.0,29.81,SW,214,8.0,13.0,15,0.00,,,0.00,WUHU216DAVISVP2,2013-05-06 00:43:00,
2013-05-05 17:49:00,74.5,23.7,29.81,SSW,212,9.0,14.0,15,0.00,,,0.00,WUHU216DAVISVP2,2013-05-06 00:49:00,
2013-05-05 17:54:00,74.0,24.9,29.81,SSW,195,9.0,17.0,16,0.00,,,0.00,WUHU216DAVISVP2,2013-05-06 00:54:00,
2013-05-05 17:59:00,73.6,24.6,29.81,SW,221,10.0,16.0,16,0.00,,,0.00,WUHU216DAVISVP2,2013-05-06 00:59:00,
2013-05-05 18:04:00,73.3,24.3,29.81,SSW,212,8.0,16.0,16,0.00,,,0.00,WUHU216DAVISVP2,2013-05-06 01:04:00,
2013-05-05 18:09:00,73.3,25.8,29.81,SSW,211,7.0,11.0,17,0.00,,,0.00,WUHU216DAVISVP2,2013-05-06 01:09:00,
2013-05-05 18:14:00,73.3,25.8,29.80,SSW,213,10.0,18.0,17,0.00,,,0.00,WUHU216DAVISVP2,2013-05-06 01:14:00,
2013-05-05 18:19:00,73.2,27.1,29.81,SSW,206,9.0,15.0,18,0.00,,,0.00,WUHU216DAVISVP2,2013-05-06 01:19:00,
2013-05-05 18:24:00,72.9,26.9,29.81,SSW,208,8.0,14.0,18,0.00,,,0.00,WUHU216DAVISVP2,2013-05-06 01:24:00,
2013-05-05 18:29:00,72.4,26.5,29.80,SSW,208,9.0,17.0,18,0.00,,,0.00,WUHU216DAVISVP2,2013-05-06 01:29:00,
2013-05-05 18:34:00,72.1,26.2,29.80,SSW,199,7.0,12.0,18,0.00,,,0.00,WUHU216DAVISVP2,2013-05-06 01:34:00,
2013-05-05 18:39:00,71.8,26.0,29.80,SSW,200,8.0,13.0,18,0.00,,,0.00,WUHU216DAVISVP2,2013-05-06 01:39:00,
2013-05-05 18:44:00,71.5,25.7,29.80,SSW,206,8.0,12.0,18,0.00,,,0.00,WUHU216DAVISVP2,2013-05-06 01:44:00,
2013-05-05 18:49:00,71.2,25.5,29.80,SSW,200,7.0,14.0,18,0.00,,,0.00,WUHU216DAVISVP2,2013-05-06 01:49:00,
2013-05-05 18:54:00,70.9,26.5,29.80,SSW,209,7.0,13.0,19,0.00,,,0.00,WUHU216DAVISVP2,2013-05-06 01:54:00,
2013-05-05 18:59:00,70.5,26.2,29.81,SW,216,6.0,9.0,19,0.00,,,0.00,WUHU216DAVISVP2,2013-05-06 01:59:00,
2013-05-05 19:04:00,70.2,26.0,29.80,South,191,5.0,10.0,19,0.00,,,0.00,WUHU216DAVISVP2,2013-05-06 02:04:00,
2013-05-05 19:09:00,69.9,25.7,29.81,South,188,6.0,12.0,19,0.00,,,0.00,WUHU216DAVISVP2,2013-05-06 02:09:00,
2013-05-05 19:15:00,69.5,25.4,29.81,SSW,206,5.0,8.0,19,0.00,,,0.00,WUHU216DAVISVP2,2013-05-06 02:15:00,
2013-05-05 19:20:00,69.2,26.4,29.82,SSW,209,4.0,8.0,20,0.00,,,0.00,WUHU216DAVISVP2,2013-05-06 02:20:00,
2013-05-05 19:25:00,68.8,26.0,29.82,SSW,206,6.0,9.0,20,0.00,,,0.00,WUHU216DAVISVP2,2013-05-06 02:25:00,
2013-05-05 19:30:00,68.5,26.9,29.82,SSW,208,6.0,10.0,21,0.00,,,0.00,WUHU216DAVISVP2,2013-05-06 02:30:00,
2013-05-05 19:35:00,68.3,26.8,29.82,SW,216,6.0,12.0,21,0.00,,,0.00,WUHU216DAVISVP2,2013-05-06 02:35:00,
2013-05-05 19:40:00,68.5,28.1,29.83,SW,214,8.0,14.0,22,0.00,,,0.00,WUHU216DAVISVP2,2013-05-06 02:40:00,
2013-05-05 19:45:00,68.6,29.2,29.83,SW,221,8.0,14.0,23,0.00,,,0.00,WUHU216DAVISVP2,2013-05-06 02:45:00,
2013-05-05 19:50:00,68.6,29.2,29.83,SW,223,8.0,12.0,23,0.00,,,0.00,WUHU216DAVISVP2,2013-05-06 02:50:00,
2013-05-05 19:55:00,68.5,29.1,29.83,SW,219,9.0,15.0,23,0.00,,,0.00,WUHU216DAVISVP2,2013-05-06 02:55:00,
2013-05-05 20:00:00,68.5,29.1,29.83,SW,215,10.0,14.0,23,0.00,,,0.00,WUHU216DAVISVP2,2013-05-06 03:00:00,
2013-05-05 20:05:00,68.5,30.2,29.84,SW,214,9.0,14.0,24,0.00,,,0.00,WUHU216DAVISVP2,2013-05-06 03:05:00,
2013-05-05 20:10:00,68.4,30.1,29.84,SW,218,10.0,15.0,24,0.00,,,0.00,WUHU216DAVISVP2,2013-05-06 03:10:00,
2013-05-05 20:16:00,68.2,29.9,29.84,SW,217,8.0,13.0,24,0.00,,,0.00,WUHU216DAVISVP2,2013-05-06 03:16:00,
2013-05-05 20:21:00,68.1,29.8,29.84,SW,219,9.0,15.0,24,0.00,,,0.00,WUHU216DAVISVP2,2013-05-06 03:21:00,
2013-05-05 20:26:00,68.0,29.7,29.84,SW,221,9.0,17.0,24,0.00,,,0.00,WUHU216DAVISVP2,2013-05-06 03:26:00,
2013-05-05 20:31:00,68.0,30.7,29.85,SW,218,10.0,15.0,25,0.00,,,0.00,WUHU216DAVISVP2,2013-05-06 03:31:00,
2013-05-05 20:36:00,67.9,29.6,29.85,SW,219,9.0,16.0,24,0.00,,,0.00,WUHU216DAVISVP2,2013-05-06 03:36:00,
2013-05-05 20:41:00,67.8,29.6,29.85,SW,220,9.0,16.0,24,0.00,,,0.00,WUHU216DAVISVP2,2013-05-06 03:41:00,
2013-05-05 20:46:00,67.7,29.5,29.85,SW,219,8.0,15.0,24,0.00,,,0.00,WUHU216DAVISVP2,2013-05-06 03:46:00,
2013-05-05 20:51:00,67.6,29.4,29.85,SW,215,9.0,18.0,24,0.00,,,0.00,WUHU216DAVISVP2,2013-05-06 03:51:00,
2013-05-05 20:56:00,67.5,29.3,29.86,SW,220,10.0,16.0,24,0.00,,,0.00,WUHU216DAVISVP2,2013-05-06 03:56:00,
2013-05-05 21:01:00,67.4,29.2,29.86,SW,218,10.0,17.0,24,0.00,,,0.00,WUHU216DAVISVP2,2013-05-06 04:01:00,
2013-05-05 21:06:00,67.3,29.1,29.86,SW,218,9.0,16.0,24,0.00,,,0.00,WUHU216DAVISVP2,2013-05-06 04:06:00,
2013-05-05 21:11:00,67.2,29.1,29.86,SW,223,8.0,14.0,24,0.00,,,0.00,WUHU216DAVISVP2,2013-05-06 04:11:00,
2013-05-05 21:16:00,67.1,30.0,29.86,SW,216,8.0,14.0,25,0.00,,,0.00,WUHU216DAVISVP2,2013-05-06 04:16:00,
2013-05-05 21:21:00,66.9,29.8,29.87,SW,219,7.0,13.0,25,0.00,,,0.00,WUHU216DAVISVP2,2013-05-06 04:21:00,
2013-05-05 21:26:00,66.8,29.7,29.87,SW,216,6.0,10.0,25,0.00,,,0.00,WUHU216DAVISVP2,2013-05-06 04:26:00,
2013-05-05 21:31:00,66.7,30.6,29.87,SW,214,5.0,10.0,26,0.00,,,0.00,WUHU216DAVISVP2,2013-05-06 04:31:00,
2013-05-05 21:37:00,66.6,30.5,29.87,SSW,207,6.0,10.0,26,0.00,,,0.00,WUHU216DAVISVP2,2013-05-06 04:37:00,
2013-05-05 21:42:00,66.7,30.6,29.87,SW,222,9.0,15.0,26,0.00,,,0.00,WUHU216DAVISVP2,2013-05-06 04:42:00,
2013-05-05 21:47:00,66.7,30.6,29.87,SW,216,9.0,17.0,26,0.00,,,0.00,WUHU216DAVISVP2,2013-05-06 04:47:00,
2013-05-05 21:52:00,66.5,30.4,29.86,SSW,212,6.0,10.0,26,0.00,,,0.00,WUHU216DAVISVP2,2013-05-06 04:52:00,
2013-05-05 21:57:00,66.4,30.3,29.86,SSW,209,8.0,13.0,26,0.00,,,0.00,WUHU216DAVISVP2,2013-05-06 04:57:00,
2013-05-05 22:02:00,66.3,30.2,29.86,SW,218,8.0,13.0,26,0.00,,,0.00,WUHU216DAVISVP2,2013-05-06 05:02:00,
2013-05-05 22:07:00,66.2,31.1,29.86,SW,221,6.0,11.0,27,0.00,,,0.00,WUHU216DAVISVP2,2013-05-06 05:07:00,
2013-05-05 22:12:00,66.1,31.9,29.86,SSW,210,6.0,11.0,28,0.00,,,0.00,WUHU216DAVISVP2,2013-05-06 05:12:00,
2013-05-05 22:17:00,65.9,32.5,29.86,SSW,212,5.0,9.0,29,0.00,,,0.00,WUHU216DAVISVP2,2013-05-06 05:17:00,
2013-05-05 22:22:00,65.8,33.3,29.86,SSW,212,7.0,12.0,30,0.00,,,0.00,WUHU216DAVISVP2,2013-05-06 05:22:00,
2013-05-05 22:27:00,65.6,33.1,29.86,SSW,209,7.0,13.0,30,0.00,,,0.00,WUHU216DAVISVP2,2013-05-06 05:27:00,
2013-05-05 22:32:00,65.6,33.9,29.86,SSW,206,8.0,13.0,31,0.00,,,0.00,WUHU216DAVISVP2,2013-05-06 05:32:00,
2013-05-05 22:37:00,65.5,34.6,29.87,SSW,211,7.0,12.0,32,0.00,,,0.00,WUHU216DAVISVP2,2013-05-06 05:37:00,
2013-05-05 22:42:00,65.3,34.5,29.86,SSW,204,7.0,14.0,32,0.00,,,0.00,WUHU216DAVISVP2,2013-05-06 05:42:00,
2013-05-05 22:47:00,65.2,34.4,29.87,SSW,208,9.0,14.0,32,0.00,,,0.00,WUHU216DAVISVP2,2013-05-06 05:47:00,
2013-05-05 22:52:00,65.1,31.0,29.86,SSW,213,9.0,15.0,28,0.00,,,0.00,WUHU216DAVISVP2,2013-05-06 05:52:00,
2013-05-05 22:58:00,65.0,29.1,29.86,SSW,206,8.0,13.0,26,0.00,,,0.00,WUHU216DAVISVP2,2013-05-06 05:58:00,
2013-05-05 23:03:00,64.9,29.0,29.86,SW,221,7.0,12.0,26,0.00,,,0.00,WUHU216DAVISVP2,2013-05-06 06:03:00,
2013-05-05 23:08:00,64.7,28.9,29.86,SW,218,6.0,11.0,26,0.00,,,0.00,WUHU216DAVISVP2,2013-05-06 06:08:00,
2013-05-05 23:13:00,64.6,28.8,29.87,SW,224,7.0,11.0,26,0.00,,,0.00,WUHU216DAVISVP2,2013-05-06 06:13:00,
2013-05-05 23:18:00,64.5,28.7,29.87,SW,218,9.0,15.0,26,0.00,,,0.00,WUHU216DAVISVP2,2013-05-06 06:18:00,
2013-05-05 23:23:00,64.5,28.7,29.87,SW,223,8.0,15.0,26,0.00,,,0.00,WUHU216DAVISVP2,2013-05-06 06:23:00,
2013-05-05 23:28:00,64.3,27.6,29.86,WSW,253,7.0,13.0,25,0.00,,,0.00,WUHU216DAVISVP2,2013-05-06 06:28:00,
2013-05-05 23:33:00,63.8,27.1,29.87,WSW,254,7.0,12.0,25,0.00,,,0.00,WUHU216DAVISVP2,2013-05-06 06:33:00,
2013-05-05 23:38:00,63.4,27.7,29.87,WSW,250,9.0,16.0,26,0.00,,,0.00,WUHU216DAVISVP2,2013-05-06 06:38:00,
2013-05-05 23:43:00,62.9,31.6,29.87,WSW,253,7.0,13.0,31,0.00,,,0.00,WUHU216DAVISVP2,2013-05-06 06:43:00,
2013-05-05 23:48:00,62.3,29.4,29.87,WSW,252,9.0,14.0,29,0.00,,,0.00,WUHU216DAVISVP2,2013-05-06 06:48:00,
2013-05-05 23:53:00,62.0,30.8,29.87,WSW,257,10.0,15.0,31,0.00,,,0.00,WUHU216DAVISVP2,2013-05-06 06:53:00,
2013-05-05 23:58:00,61.4,34.0,29.87,West,262,7.0,13.0,36,0.00,,,0.00,WUHU216DAVISVP2,2013-05-06 06:58:00,